Location: Czekanka
(50.4925°N, 19.2643°E)
Time: 09:09:20
(UTC+00:00)

CZ-2C R/B - Pass Details

Date: 15 June 2024
Orbit: 782 x 868 km, 98.4° (Epoch: 28 April)

Event Time Altitude Azimuth Distance (km) Brightness Sun altitude
Rises 22:40:13 0° 107° (ESE) 3,319 5.6 -16.2°
Reaches altitude 10° 22:43:27 10° 86° (E) 2,409 5.1 -16.2°
Drops below altitude 10° 22:49:31 10° 17° (NNE) 2,450 6.3 -16.2°
Enters shadow 23:49:51 -64° 164° (SSE) 12,291 8.6 -14.7°
Maximum altitude 00:25:49 75° 72° (ENE) 851 2.8 -12.8°
